User: anonymous   Login
Location: Briis
(48.6240°N, 2.1211°E)
Time: 03:21:19
(UTC+00:00)
Language:

ALOS - Orbit

View from above orbital plane
View from above orbital plane
View from above satellite
View from above satellite

Ground track
Ground track

The orbit data is extracted from the following two-line orbital elements,

1 28931U 06002A   20329.55426937  .00000119  00000-0  31963-4 0  9995
2 28931  97.8628 307.5837 0001052  19.3933 340.7300 14.62762384791102
Epoch (UTC): 24 November 2020 13:18:08
Eccentricity: 0.0001052
inclination: 97.8628°
perigee height: 683 km
apogee height: 685 km
right ascension of ascending node: 307.5837°
argument of perigee: 19.3933°
revolutions per day: 14.62762384
mean anomaly at epoch: 340.7300°
orbit number at epoch: 79110

The dashed part of the orbit path shows where the satellite is in the earth's shadow,  

DLR